STARLINK-1828, 46725

Orbit data source: Space-Track

STARLINK-1828, 46725 is a payload satellite owned by SpaceX/Seattle (US) in LEO that was launched on Sun, 18 Oct 2020 UTC via an FALCON 9 launch vehicle from the Air Force Eastern Test Range (AFETR). Payloads include a variety of satellites, spacecraft, and rockets equipped with specific instruments for various scientific and technological missions. These include communications satellites like Starlink; space stations such as the ISS; scientific satellites like the Hubble; Earth observation satellites from companies like Planet Labs, Umbra, and HawkEye 360; GPS; miniature CubeSats for education and research; and military/defense satellites.

Loading next visibility...
STARLINK-1828 details
Identifier
46725, 2020-073BH
Orbit
LEO
Last TLE update11 hours ago
Origin
Flag of USSpaceX/Seattle (US)
ManufacturerSpaceX/Seattle
MissionOperational Commercial Communications
Bus & MotorSTARLINK, Unknown motor
Mass260 kg wet, ~248 kg dry
Launch date (UTC)
2020-10-18 (4 years ago)
Launch vehicle
FALCON 9
Launch site
Air Force Eastern Test Range (AFETR)
Object type
Payload
Rocket body
Debris
Shape & HBRBox + 1 Pan, 8.86 m
Radar Cross Section13.562 m², Large (>1 m²)

Expand to show TLE details & history

TLE from 11 hours ago
0 STARLINK-1828
1 46725U 20073BH  24348.74963294  .00001803  00000-0  13995-3 0  9993
2 46725  53.0555 120.9639 0001320  97.4192 262.6947 15.06391367229434
Epoch: 2024-12-13T17:59Z
Definitive object data (Epoch: 2024-12-13T17:59:28.286Z)
Latitude-0°
Longitude128.1849°
Altitude548.234 km
Speed7.589 km/s
True Right ascension08h 03m 51s
True Declination0° 00' 00"
Sunlit
Object was in full shadow at TLE epoch
Visualization TLE readout
Latitude43.60393°
Longitude171.47514°
Altitude550.894 km
Speed7.592 km/s
Apparent Right ascension13h 24m 47s
Apparent Declination4° 58' 32"
Sunlit
Object is in daylight
Visualization observer readout
Local Sidereal Time03:57:01
Azimuth47.145° ENE
Elevation-33.09°
Doppler factor1
Orbital elements
Apogee altitude548.423 km
Perigee altitude546.594 km
Semi-major axis6,925.646 km
Eccentricity0.000132
Inclination53.0555°
RAAN120.9639°
Arg. of periapsis97.4192°
True anomaly262.6797°
Mean anomaly262.6947°
Eccentric anomaly262.6872°
Mean motion3.76576 °/min
BSTAR0.00013995
Orbital period95.6 mins
Loading maneuver chart data...
Loading historical data...
Loading historical data...
Loading historical data...
Loading historical data...
Loading historical data...
Loading historical data...
Loading historical data...

STARLINK-1828 Visibility forecast

Observer location: undefined°, undefined

Span
Click to sort rows by Start time (UTC) header in descending order
Start Az.
Max El. time (UTC)
Max El. Az.
Max El.
End time (UTC)
End Az.
7 mins2024-12-14 11:40:59.171Z223.348° SW2024-12-14 11:43:59.171Z182.49° SSW43.837°2024-12-14 11:47:59.171Z52.858° ENE
5 mins2024-12-14 13:21:59.171Z295.682° NW2024-12-14 13:23:59.171Z333.267° NNW21.103°2024-12-14 13:26:59.171Z26.055° NE
4 mins2024-12-14 16:43:59.171Z347.97° N2024-12-14 16:45:59.171Z25.205° NE18.364°2024-12-14 16:47:59.171Z59.05° ENE
6 mins2024-12-14 18:22:59.171Z314.302° NW2024-12-14 18:25:59.171Z72.248° E43.891°2024-12-14 18:28:59.171Z124.158° SE
|